EA2AFZ-W Weather Reports


Display with metric or nautical units.
time (UTC)temp
F
wind
direction
speed
MPH
gust
MPH
rain 1hr
in
rain 24hr
in
rain mn
in
humidity
%
barometer
mb
20260503171540 62 10 21.0 21.0 0.00 0.00 0.00 80 1011.0
20260503081548 60 100 3.0 3.0 0.00 0.00 0.00 77 1013.0
20260503071541 54 270 3.0 3.0 0.00 0.00 0.00 83 1013.0
20260503054533 55 290 3.0 3.0 0.00 0.00 0.00 87 1013.0
20260503051532 55 290 3.0 3.0 0.00 0.00 0.00 87 1013.0
20260503044529 56 290 3.0 3.0 0.00 0.00 0.00 87 1013.0
20260503041525 56 290 3.0 3.0 0.00 0.00 0.00 86 1013.0
20260503034524 56 290 3.0 3.0 0.00 0.00 0.00 86 1013.0
20260503031521 57 290 3.0 3.0 0.00 0.00 0.00 86 1013.0
20260503024518 57 290 3.0 3.0 0.00 0.00 0.00 85 1013.0
20260503021515 57 290 3.0 3.0 0.00 0.00 0.00 84 1013.0
20260503014513 56 290 3.0 3.0 0.00 0.00 0.00 81 1014.0
20260503011510 56 290 3.0 3.0 0.00 0.00 0.00 80 1014.0
20260503004507 57 290 3.0 3.0 0.00 0.00 0.00 80 1014.0
20260503001604 58 290 3.0 3.0 0.00 0.00 0.00 82 1014.0
20260502234602 58 290 3.0 3.0 0.00 0.00 0.00 80 1014.0
20260502231559 59 290 3.0 3.0 0.00 0.00 0.00 80 1014.0
20260502224556 60 290 3.0 3.0 0.00 0.00 0.00 80 1014.0
20260502221555 60 331 2.0 2.0 0.00 0.00 0.00 79 1014.0
20260502214551 60 160 8.0 8.0 0.00 0.00 0.00 81 1015.0
20260502211549 60 160 8.0 8.0 0.00 0.00 0.00 78 1014.0
20260502204546 60 160 8.0 8.0 0.00 0.00 0.00 73 1014.0
20260502201544 61 160 8.0 8.0 0.00 0.00 0.00 71 1013.0
20260502194542 62 160 8.0 8.0 0.00 0.00 0.00 70 1014.0
20260502191539 62 160 8.0 8.0 0.00 0.00 0.00 71 1014.0
20260502184536 63 160 8.0 8.0 0.00 0.00 0.00 70 1014.0
20260502181533 63 160 8.0 8.0 0.00 0.00 0.00 70 1014.0